Year,Month,Day,Hour,Minute,Value (Times are PST for windspeed in km/hr)
2012,02,27,00,00,1.20
2012,02,27,00,01,1.90
2012,02,27,00,02,2.60
2012,02,27,00,03,0.10
2012,02,27,00,04,0.00
2012,02,27,00,05,0.30
2012,02,27,00,06,0.00
2012,02,27,00,07,1.30
2012,02,27,00,08,1.20
2012,02,27,00,09,0.10
2012,02,27,00,10,0.00
2012,02,27,00,11,1.80
2012,02,27,00,12,1.00
2012,02,27,00,13,0.00
2012,02,27,00,14,2.10
2012,02,27,00,15,0.00
2012,02,27,00,16,0.40
2012,02,27,00,17,1.30
2012,02,27,00,18,1.50
2012,02,27,00,19,1.80
2012,02,27,00,20,1.20
2012,02,27,00,21,0.00
2012,02,27,00,22,1.50
2012,02,27,00,23,0.00
2012,02,27,00,24,0.00
2012,02,27,00,25,0.00
2012,02,27,00,26,0.00
2012,02,27,00,27,1.50
2012,02,27,00,28,5.70
2012,02,27,00,29,5.60
2012,02,27,00,30,3.80
2012,02,27,00,31,5.40
2012,02,27,00,32,6.40
2012,02,27,00,33,5.60
2012,02,27,00,34,4.20
2012,02,27,00,35,2.80
2012,02,27,00,36,3.00
2012,02,27,00,37,4.30
2012,02,27,00,38,3.50
2012,02,27,00,39,3.10
2012,02,27,00,40,4.20
2012,02,27,00,41,1.70
2012,02,27,00,42,3.70
2012,02,27,00,43,7.30
2012,02,27,00,44,4.90
2012,02,27,00,45,5.30
2012,02,27,00,46,3.80
2012,02,27,00,47,0.60
2012,02,27,00,48,1.60
2012,02,27,00,49,3.70
2012,02,27,00,50,1.60
2012,02,27,00,51,2.70
2012,02,27,00,52,1.10
2012,02,27,00,53,2.30
2012,02,27,00,54,1.90
2012,02,27,00,55,0.70
2012,02,27,00,56,0.80
2012,02,27,00,57,2.60
2012,02,27,00,58,1.90
2012,02,27,00,59,2.30
2012,02,27,01,00,0.00
2012,02,27,01,01,2.50
2012,02,27,01,02,3.90
2012,02,27,01,03,3.20
2012,02,27,01,04,3.10
2012,02,27,01,05,1.40
2012,02,27,01,06,1.00
2012,02,27,01,07,1.40
2012,02,27,01,08,0.00
2012,02,27,01,09,0.00
2012,02,27,01,10,1.20
2012,02,27,01,11,2.50
2012,02,27,01,12,2.00
2012,02,27,01,13,1.00
2012,02,27,01,14,0.00
2012,02,27,01,15,0.00
2012,02,27,01,16,2.30
2012,02,27,01,17,0.80
2012,02,27,01,18,1.80
2012,02,27,01,19,0.60
2012,02,27,01,20,3.40
2012,02,27,01,21,1.20
2012,02,27,01,22,0.60
2012,02,27,01,23,2.70
2012,02,27,01,24,3.60
2012,02,27,01,25,2.20
2012,02,27,01,26,0.80
2012,02,27,01,27,1.10
2012,02,27,01,28,3.00
2012,02,27,01,29,1.40
2012,02,27,01,30,1.20
2012,02,27,01,31,2.00
2012,02,27,01,32,2.00
2012,02,27,01,33,1.80
2012,02,27,01,34,0.90
2012,02,27,01,35,1.10
2012,02,27,01,36,3.00
2012,02,27,01,37,2.70
2012,02,27,01,38,2.30
2012,02,27,01,39,0.30
2012,02,27,01,40,0.00
2012,02,27,01,41,1.40
2012,02,27,01,42,0.20
2012,02,27,01,43,2.10
2012,02,27,01,44,1.60
2012,02,27,01,45,1.60
2012,02,27,01,46,0.40
2012,02,27,01,47,2.00
2012,02,27,01,48,0.70
2012,02,27,01,49,1.40
2012,02,27,01,50,3.50
2012,02,27,01,51,3.30
2012,02,27,01,52,1.90
2012,02,27,01,53,0.70
2012,02,27,01,54,1.00
2012,02,27,01,55,1.90
2012,02,27,01,56,1.00
2012,02,27,01,57,0.60
2012,02,27,01,58,3.70
2012,02,27,01,59,3.50
2012,02,27,02,00,0.30
2012,02,27,02,01,0.00
2012,02,27,02,02,0.00
2012,02,27,02,03,0.10
2012,02,27,02,04,0.00
2012,02,27,02,05,0.20
2012,02,27,02,06,1.60
2012,02,27,02,07,0.00
2012,02,27,02,08,0.00
2012,02,27,02,09,3.80
2012,02,27,02,10,2.80
2012,02,27,02,11,0.10
2012,02,27,02,12,0.00
2012,02,27,02,13,0.00
2012,02,27,02,14,0.00
2012,02,27,02,15,0.00
2012,02,27,02,16,1.60
2012,02,27,02,17,2.10
2012,02,27,02,18,0.10
2012,02,27,02,19,0.00
2012,02,27,02,20,0.00
2012,02,27,02,21,0.00
2012,02,27,02,22,0.00
2012,02,27,02,23,0.00
2012,02,27,02,24,0.10
2012,02,27,02,25,0.00
2012,02,27,02,26,0.00
2012,02,27,02,27,0.00
2012,02,27,02,28,0.00
2012,02,27,02,29,0.00
2012,02,27,02,30,0.00
2012,02,27,02,31,0.00
2012,02,27,02,32,0.10
2012,02,27,02,33,0.00
2012,02,27,02,34,0.00
2012,02,27,02,35,0.00
2012,02,27,02,36,0.00
2012,02,27,02,37,0.00
2012,02,27,02,38,0.00
2012,02,27,02,39,0.00
2012,02,27,02,40,0.00
2012,02,27,02,41,0.00
2012,02,27,02,42,0.00
2012,02,27,02,43,0.00
2012,02,27,02,44,0.00
2012,02,27,02,45,0.10
2012,02,27,02,46,0.00
2012,02,27,02,47,0.00
2012,02,27,02,48,0.00
2012,02,27,02,49,0.00
2012,02,27,02,50,0.00
2012,02,27,02,51,0.00
2012,02,27,02,52,0.00
2012,02,27,02,53,0.00
2012,02,27,02,54,0.00
2012,02,27,02,55,0.00
2012,02,27,02,56,0.00
2012,02,27,02,57,0.00
2012,02,27,02,58,0.00
2012,02,27,02,59,0.00
2012,02,27,03,00,0.00
2012,02,27,03,01,0.00
2012,02,27,03,02,0.00
2012,02,27,03,03,0.00
2012,02,27,03,04,0.00
2012,02,27,03,05,1.70
2012,02,27,03,06,0.60
2012,02,27,03,07,0.00
2012,02,27,03,08,0.00
2012,02,27,03,09,0.40
2012,02,27,03,10,0.00
2012,02,27,03,11,1.40
2012,02,27,03,12,2.10
2012,02,27,03,13,3.00
2012,02,27,03,14,3.10
2012,02,27,03,15,0.90
2012,02,27,03,16,2.60
2012,02,27,03,17,3.50
2012,02,27,03,18,2.70
2012,02,27,03,19,0.30
2012,02,27,03,20,1.00
2012,02,27,03,21,1.20
2012,02,27,03,22,0.00
2012,02,27,03,23,0.10
2012,02,27,03,24,3.30
2012,02,27,03,25,3.20
2012,02,27,03,26,2.80
2012,02,27,03,27,1.40
2012,02,27,03,28,2.60
2012,02,27,03,29,2.30
2012,02,27,03,30,4.30
2012,02,27,03,31,1.70
2012,02,27,03,32,1.30
2012,02,27,03,33,1.00
2012,02,27,03,34,0.50
2012,02,27,03,35,1.40
2012,02,27,03,36,0.30
2012,02,27,03,37,0.60
2012,02,27,03,38,2.70
2012,02,27,03,39,4.00
2012,02,27,03,40,3.40
2012,02,27,03,41,4.30
2012,02,27,03,42,3.60
2012,02,27,03,43,2.10
2012,02,27,03,44,1.00
2012,02,27,03,45,0.50
2012,02,27,03,46,3.00
2012,02,27,03,47,1.10
2012,02,27,03,48,1.60
2012,02,27,03,49,0.80
2012,02,27,03,50,1.40
2012,02,27,03,51,0.20
2012,02,27,03,52,0.60
2012,02,27,03,53,1.00
2012,02,27,03,54,0.30
2012,02,27,03,55,1.20
2012,02,27,03,56,0.30
2012,02,27,03,57,1.10
2012,02,27,03,58,3.30
2012,02,27,03,59,3.60
2012,02,27,04,00,1.00
2012,02,27,04,01,3.70
2012,02,27,04,02,3.10
2012,02,27,04,03,0.20
2012,02,27,04,04,1.10
2012,02,27,04,05,7.50
2012,02,27,04,06,3.60
2012,02,27,04,07,0.60
2012,02,27,04,08,3.40
2012,02,27,04,09,0.10
2012,02,27,04,10,0.10
2012,02,27,04,11,0.20
2012,02,27,04,12,2.20
2012,02,27,04,13,2.30
2012,02,27,04,14,1.10
2012,02,27,04,15,2.00
2012,02,27,04,16,2.00
2012,02,27,04,17,1.80
2012,02,27,04,18,0.00
2012,02,27,04,19,1.60
2012,02,27,04,20,0.10
2012,02,27,04,21,0.30
2012,02,27,04,22,1.70
2012,02,27,04,23,1.50
2012,02,27,04,24,0.60
2012,02,27,04,25,0.30
2012,02,27,04,26,0.40
2012,02,27,04,27,0.00
2012,02,27,04,28,0.00
2012,02,27,04,29,0.00
2012,02,27,04,30,0.00
2012,02,27,04,31,0.00
2012,02,27,04,32,0.00
2012,02,27,04,33,0.00
2012,02,27,04,34,0.00
2012,02,27,04,35,0.00
2012,02,27,04,36,0.80
2012,02,27,04,37,1.00
2012,02,27,04,38,1.00
2012,02,27,04,39,0.00
2012,02,27,04,40,0.00
2012,02,27,04,41,1.00
2012,02,27,04,42,0.00
2012,02,27,04,43,0.80
2012,02,27,04,44,1.90
2012,02,27,04,45,0.00
2012,02,27,04,46,0.00
2012,02,27,04,47,0.10
2012,02,27,04,48,0.00
2012,02,27,04,49,0.00
2012,02,27,04,50,0.00
2012,02,27,04,51,0.00
2012,02,27,04,52,0.00
2012,02,27,04,53,0.00
2012,02,27,04,54,0.50
2012,02,27,04,55,0.00
2012,02,27,04,56,0.30
2012,02,27,04,57,0.00
2012,02,27,04,58,0.00
2012,02,27,04,59,0.00
2012,02,27,05,00,2.80
2012,02,27,05,01,1.40
2012,02,27,05,02,0.80
2012,02,27,05,03,0.00
2012,02,27,05,04,0.20
2012,02,27,05,05,0.00
2012,02,27,05,06,0.10
2012,02,27,05,07,0.00
2012,02,27,05,08,0.80
2012,02,27,05,09,3.50
2012,02,27,05,10,0.60
2012,02,27,05,11,0.00
2012,02,27,05,12,0.70
2012,02,27,05,13,0.00
2012,02,27,05,14,0.10
2012,02,27,05,15,0.00
2012,02,27,05,16,0.00
2012,02,27,05,17,0.00
2012,02,27,05,18,0.00
2012,02,27,05,19,0.00
2012,02,27,05,20,0.00
2012,02,27,05,21,0.00
2012,02,27,05,22,0.00
2012,02,27,05,23,0.00
2012,02,27,05,24,0.00
2012,02,27,05,25,0.00
2012,02,27,05,26,0.00
2012,02,27,05,27,0.00
2012,02,27,05,28,0.00
2012,02,27,05,29,0.00
2012,02,27,05,30,0.00
2012,02,27,05,31,0.00
2012,02,27,05,32,0.00
2012,02,27,05,33,0.00
2012,02,27,05,34,0.00
2012,02,27,05,35,0.00
2012,02,27,05,36,0.00
2012,02,27,05,37,0.00
2012,02,27,05,38,0.00
2012,02,27,05,39,0.00
2012,02,27,05,40,0.00
2012,02,27,05,41,0.00
2012,02,27,05,42,0.00
2012,02,27,05,43,0.00
2012,02,27,05,44,0.00
2012,02,27,05,45,0.00
2012,02,27,05,46,0.00
2012,02,27,05,47,0.00
2012,02,27,05,48,0.00
2012,02,27,05,49,0.00
2012,02,27,05,50,0.00
2012,02,27,05,51,0.00
2012,02,27,05,52,0.00
2012,02,27,05,53,0.00
2012,02,27,05,54,0.00
2012,02,27,05,55,0.00
2012,02,27,05,56,0.00
2012,02,27,05,57,0.00
2012,02,27,05,58,0.00
2012,02,27,05,59,0.00
2012,02,27,06,00,0.00
2012,02,27,06,01,0.00
2012,02,27,06,02,0.00
2012,02,27,06,03,0.00
2012,02,27,06,04,0.00
2012,02,27,06,05,0.00
2012,02,27,06,06,0.00
2012,02,27,06,07,0.00
2012,02,27,06,08,0.00
2012,02,27,06,09,1.60
2012,02,27,06,10,1.20
2012,02,27,06,11,0.00
2012,02,27,06,12,0.00
2012,02,27,06,13,0.00
2012,02,27,06,14,0.00
2012,02,27,06,15,0.00
2012,02,27,06,16,0.00
2012,02,27,06,17,0.00
2012,02,27,06,18,1.20
2012,02,27,06,19,1.20
2012,02,27,06,20,0.00
2012,02,27,06,21,0.00
2012,02,27,06,22,0.00
2012,02,27,06,23,0.00
2012,02,27,06,24,0.00
2012,02,27,06,25,0.00
2012,02,27,06,26,0.00
2012,02,27,06,27,0.00
2012,02,27,06,28,0.00
2012,02,27,06,29,0.00
2012,02,27,06,30,0.00
2012,02,27,06,31,0.00
2012,02,27,06,32,0.00
2012,02,27,06,33,0.00
2012,02,27,06,34,0.10
2012,02,27,06,35,0.00
2012,02,27,06,36,0.00
2012,02,27,06,37,0.00
2012,02,27,06,38,0.00
2012,02,27,06,39,0.00
2012,02,27,06,40,1.80
2012,02,27,06,41,1.10
2012,02,27,06,42,2.00
2012,02,27,06,43,0.00
2012,02,27,06,44,0.00
2012,02,27,06,45,0.00
2012,02,27,06,46,0.00
2012,02,27,06,47,0.00
2012,02,27,06,48,0.00
2012,02,27,06,49,0.00
2012,02,27,06,50,0.00
2012,02,27,06,51,0.00
2012,02,27,06,52,0.00
2012,02,27,06,53,0.00
2012,02,27,06,54,0.00
2012,02,27,06,55,0.00
2012,02,27,06,56,0.00
2012,02,27,06,57,0.00
2012,02,27,06,58,0.00
2012,02,27,06,59,0.00
2012,02,27,07,00,0.00
2012,02,27,07,01,0.00
2012,02,27,07,02,0.00
2012,02,27,07,03,0.00
2012,02,27,07,04,0.00
2012,02,27,07,05,0.00
2012,02,27,07,06,0.00
2012,02,27,07,07,0.10
2012,02,27,07,08,0.00
2012,02,27,07,09,0.30
2012,02,27,07,10,0.00
2012,02,27,07,11,0.00
2012,02,27,07,12,0.20
2012,02,27,07,13,0.20
2012,02,27,07,14,1.70
2012,02,27,07,15,0.00
2012,02,27,07,16,0.00
2012,02,27,07,17,0.00
2012,02,27,07,18,0.00
2012,02,27,07,19,0.00
2012,02,27,07,20,0.00
2012,02,27,07,21,0.00
2012,02,27,07,22,0.00
2012,02,27,07,23,0.00
2012,02,27,07,24,0.00
2012,02,27,07,25,0.00
2012,02,27,07,26,0.00
2012,02,27,07,27,0.20
2012,02,27,07,28,1.40
2012,02,27,07,29,1.90
2012,02,27,07,30,1.40
2012,02,27,07,31,1.10
2012,02,27,07,32,2.70
2012,02,27,07,33,0.30
2012,02,27,07,34,0.80
2012,02,27,07,35,0.00
2012,02,27,07,36,0.00
2012,02,27,07,37,0.20
2012,02,27,07,38,0.00
2012,02,27,07,39,0.00
2012,02,27,07,40,0.10
2012,02,27,07,41,1.70
2012,02,27,07,42,1.30
2012,02,27,07,43,0.10
2012,02,27,07,44,0.60
2012,02,27,07,45,0.00
2012,02,27,07,46,0.00
2012,02,27,07,47,0.00
2012,02,27,07,48,0.00
2012,02,27,07,49,0.00
2012,02,27,07,50,0.00
2012,02,27,07,51,0.00
2012,02,27,07,52,0.00
2012,02,27,07,53,0.00
2012,02,27,07,54,0.00
2012,02,27,07,55,0.00
2012,02,27,07,56,0.00
2012,02,27,07,57,0.00
2012,02,27,07,58,0.00
2012,02,27,07,59,0.00
2012,02,27,08,00,0.00
2012,02,27,08,01,0.00
2012,02,27,08,02,0.00
2012,02,27,08,03,0.00
2012,02,27,08,04,0.00
2012,02,27,08,05,0.00
2012,02,27,08,06,0.00
2012,02,27,08,07,0.00
2012,02,27,08,08,0.00
2012,02,27,08,09,0.00
2012,02,27,08,10,0.00
2012,02,27,08,11,0.00
2012,02,27,08,12,0.00
2012,02,27,08,13,0.00
2012,02,27,08,14,0.00
2012,02,27,08,15,0.00
2012,02,27,08,16,0.00
2012,02,27,08,17,0.00
2012,02,27,08,18,0.00
2012,02,27,08,19,0.00
2012,02,27,08,20,0.00
2012,02,27,08,21,0.00
2012,02,27,08,22,0.00
2012,02,27,08,23,0.00
2012,02,27,08,24,0.00
2012,02,27,08,25,0.00
2012,02,27,08,26,0.00
2012,02,27,08,27,0.00
2012,02,27,08,28,0.00
2012,02,27,08,29,0.00
2012,02,27,08,30,0.00
2012,02,27,08,31,0.00
2012,02,27,08,32,0.00
2012,02,27,08,33,0.00
2012,02,27,08,34,0.00
2012,02,27,08,35,0.00
2012,02,27,08,36,0.00
2012,02,27,08,37,0.00
2012,02,27,08,38,0.00
2012,02,27,08,39,0.10
2012,02,27,08,40,0.00
2012,02,27,08,41,0.20
2012,02,27,08,42,0.80
2012,02,27,08,43,1.50
2012,02,27,08,44,1.90
2012,02,27,08,45,2.70
2012,02,27,08,46,3.30
2012,02,27,08,47,2.90
2012,02,27,08,48,1.50
2012,02,27,08,49,2.90
2012,02,27,08,50,2.70
2012,02,27,08,51,5.10
2012,02,27,08,52,1.40
2012,02,27,08,53,2.30
2012,02,27,08,54,4.40
2012,02,27,08,55,3.70
2012,02,27,08,56,5.20
2012,02,27,08,57,5.30
2012,02,27,08,58,6.40
2012,02,27,08,59,7.80
2012,02,27,09,00,7.20
2012,02,27,09,01,6.00
2012,02,27,09,02,5.10
2012,02,27,09,03,3.70
2012,02,27,09,04,1.10
2012,02,27,09,05,5.60
2012,02,27,09,06,6.00
2012,02,27,09,07,5.00
2012,02,27,09,08,5.20
2012,02,27,09,09,9.20
2012,02,27,09,10,5.20
2012,02,27,09,11,8.10
2012,02,27,09,12,5.20
2012,02,27,09,13,2.30
2012,02,27,09,14,0.10
2012,02,27,09,15,0.20
2012,02,27,09,16,0.10
2012,02,27,09,17,2.50
2012,02,27,09,18,2.70
2012,02,27,09,19,0.50
2012,02,27,09,20,0.60
2012,02,27,09,21,1.80
2012,02,27,09,22,0.20
2012,02,27,09,23,2.40
2012,02,27,09,24,6.30
2012,02,27,09,25,1.50
2012,02,27,09,26,5.90
2012,02,27,09,27,3.90
2012,02,27,09,28,2.50
2012,02,27,09,29,2.40
2012,02,27,09,30,3.10
2012,02,27,09,31,5.90
2012,02,27,09,32,6.90
2012,02,27,09,33,6.40
2012,02,27,09,34,6.80
2012,02,27,09,35,7.10
2012,02,27,09,36,8.00
2012,02,27,09,37,9.20
2012,02,27,09,38,7.20
2012,02,27,09,39,6.90
2012,02,27,09,40,4.30
2012,02,27,09,41,5.60
2012,02,27,09,42,4.00
2012,02,27,09,43,5.70
2012,02,27,09,44,7.40
2012,02,27,09,45,4.40
2012,02,27,09,46,8.00
2012,02,27,09,47,6.80
2012,02,27,09,48,5.10
2012,02,27,09,49,4.70
2012,02,27,09,50,3.10
2012,02,27,09,51,2.40
2012,02,27,09,52,6.00
2012,02,27,09,53,12.40
2012,02,27,09,54,10.90
2012,02,27,09,55,7.60
2012,02,27,09,56,4.40
2012,02,27,09,57,7.50
2012,02,27,09,58,6.40
2012,02,27,09,59,3.60
2012,02,27,10,00,8.30
2012,02,27,10,01,7.70
2012,02,27,10,02,5.00
2012,02,27,10,03,7.20
2012,02,27,10,04,7.50
2012,02,27,10,05,4.90
2012,02,27,10,06,2.30
2012,02,27,10,07,1.70
2012,02,27,10,08,7.40
2012,02,27,10,09,9.30
2012,02,27,10,10,11.30
2012,02,27,10,11,10.80
2012,02,27,10,12,7.80
2012,02,27,10,13,9.30
2012,02,27,10,14,5.40
2012,02,27,10,15,6.80
2012,02,27,10,16,8.40
2012,02,27,10,17,7.60
2012,02,27,10,18,4.50
2012,02,27,10,19,1.50
2012,02,27,10,20,7.00
2012,02,27,10,21,12.40
2012,02,27,10,22,5.50
2012,02,27,10,23,8.40
2012,02,27,10,24,3.80
2012,02,27,10,25,9.50
2012,02,27,10,26,6.50
2012,02,27,10,27,3.10
2012,02,27,10,28,3.10
2012,02,27,10,29,5.40
2012,02,27,10,30,4.90
2012,02,27,10,31,4.30
2012,02,27,10,32,2.60
2012,02,27,10,33,2.20
2012,02,27,10,34,2.60
2012,02,27,10,35,5.10
2012,02,27,10,36,7.80
2012,02,27,10,37,4.70
2012,02,27,10,38,6.60
2012,02,27,10,39,5.10
2012,02,27,10,40,3.80
2012,02,27,10,41,6.20
2012,02,27,10,42,6.50
2012,02,27,10,43,6.20
2012,02,27,10,44,3.60
2012,02,27,10,45,2.60
2012,02,27,10,46,7.30
2012,02,27,10,47,9.00
2012,02,27,10,48,4.10
2012,02,27,10,49,2.70
2012,02,27,10,50,4.60
2012,02,27,10,51,5.40
2012,02,27,10,52,8.10
2012,02,27,10,53,9.10
2012,02,27,10,54,8.80
2012,02,27,10,55,6.70
2012,02,27,10,56,3.70
2012,02,27,10,57,8.10
2012,02,27,10,58,8.50
2012,02,27,10,59,3.50
2012,02,27,11,00,6.70
2012,02,27,11,01,9.70
2012,02,27,11,02,3.70
2012,02,27,11,03,8.80
2012,02,27,11,04,13.00
2012,02,27,11,05,8.60
2012,02,27,11,06,9.70
2012,02,27,11,07,8.60
2012,02,27,11,08,7.80
2012,02,27,11,09,6.10
2012,02,27,11,10,7.60
2012,02,27,11,11,5.70
2012,02,27,11,12,4.60
2012,02,27,11,13,9.50
2012,02,27,11,14,9.70
2012,02,27,11,15,8.20
2012,02,27,11,16,8.90
2012,02,27,11,17,4.90
2012,02,27,11,18,6.50
2012,02,27,11,19,6.90
2012,02,27,11,20,2.50
2012,02,27,11,21,6.20
2012,02,27,11,22,4.60
2012,02,27,11,23,9.40
2012,02,27,11,24,7.60
2012,02,27,11,25,8.70
2012,02,27,11,26,7.70
2012,02,27,11,27,8.20
2012,02,27,11,28,9.50
2012,02,27,11,29,5.60
2012,02,27,11,30,4.20
2012,02,27,11,31,4.50
2012,02,27,11,32,4.80
2012,02,27,11,33,8.10
2012,02,27,11,34,4.30
2012,02,27,11,35,4.50
2012,02,27,11,36,5.40
2012,02,27,11,37,9.90
2012,02,27,11,38,6.20
2012,02,27,11,39,6.70
2012,02,27,11,40,6.00
2012,02,27,11,41,4.50
2012,02,27,11,42,3.30
2012,02,27,11,43,9.30
2012,02,27,11,44,5.90
2012,02,27,11,45,2.30
2012,02,27,11,46,5.70
2012,02,27,11,47,6.40
2012,02,27,11,48,6.60
2012,02,27,11,49,8.20
2012,02,27,11,50,5.80
2012,02,27,11,51,6.20
2012,02,27,11,52,3.90
2012,02,27,11,53,4.50
2012,02,27,11,54,7.60
2012,02,27,11,55,6.00
2012,02,27,11,56,9.50
2012,02,27,11,57,7.20
2012,02,27,11,58,6.00
2012,02,27,11,59,5.60
2012,02,27,12,00,5.60
2012,02,27,12,01,9.10
2012,02,27,12,02,3.50
2012,02,27,12,03,8.50
2012,02,27,12,04,7.30
2012,02,27,12,05,11.70
2012,02,27,12,06,8.20
2012,02,27,12,07,4.50
2012,02,27,12,08,11.30
2012,02,27,12,09,14.40
2012,02,27,12,10,11.70
2012,02,27,12,11,9.60
2012,02,27,12,12,8.40
2012,02,27,12,13,8.30
2012,02,27,12,14,6.80
2012,02,27,12,15,7.80
2012,02,27,12,16,6.40
2012,02,27,12,17,10.80
2012,02,27,12,18,8.90
2012,02,27,12,19,4.00
2012,02,27,12,20,9.40
2012,02,27,12,21,6.50
2012,02,27,12,22,7.80
2012,02,27,12,23,8.60
2012,02,27,12,24,8.30
2012,02,27,12,25,7.00
2012,02,27,12,26,6.70
2012,02,27,12,27,9.10
2012,02,27,12,28,4.10
2012,02,27,12,29,5.70
2012,02,27,12,30,7.20
2012,02,27,12,31,5.10
2012,02,27,12,32,6.60
2012,02,27,12,33,6.40
2012,02,27,12,34,10.70
2012,02,27,12,35,11.50
2012,02,27,12,36,8.60
2012,02,27,12,37,7.50
2012,02,27,12,38,7.40
2012,02,27,12,39,6.80
2012,02,27,12,40,9.70
2012,02,27,12,41,9.80
2012,02,27,12,42,10.80
2012,02,27,12,43,4.80
2012,02,27,12,44,6.80
2012,02,27,12,45,5.00
2012,02,27,12,46,9.70
2012,02,27,12,47,8.30
2012,02,27,12,48,11.00
2012,02,27,12,49,10.90
2012,02,27,12,50,7.40
2012,02,27,12,51,5.90
2012,02,27,12,52,5.90
2012,02,27,12,53,6.80
2012,02,27,12,54,9.70
2012,02,27,12,55,7.30
2012,02,27,12,56,6.50
2012,02,27,12,57,6.30
2012,02,27,12,58,9.30
2012,02,27,12,59,7.60
2012,02,27,13,00,8.40
2012,02,27,13,01,9.90
2012,02,27,13,02,14.50
2012,02,27,13,03,6.80
2012,02,27,13,04,8.30
2012,02,27,13,05,7.10
2012,02,27,13,06,7.70
2012,02,27,13,07,11.10
2012,02,27,13,08,7.80
2012,02,27,13,09,15.50
2012,02,27,13,10,6.90
2012,02,27,13,11,4.60
2012,02,27,13,12,11.60
2012,02,27,13,13,15.00
2012,02,27,13,14,13.20
2012,02,27,13,15,16.50
2012,02,27,13,16,14.90
2012,02,27,13,17,5.80
2012,02,27,13,18,8.80
2012,02,27,13,19,6.80
2012,02,27,13,20,13.40
2012,02,27,13,21,11.60
2012,02,27,13,22,6.50
2012,02,27,13,23,7.90
2012,02,27,13,24,9.80
2012,02,27,13,25,3.90
2012,02,27,13,26,8.60
2012,02,27,13,27,12.20
2012,02,27,13,28,8.10
2012,02,27,13,29,7.30
2012,02,27,13,30,5.50
2012,02,27,13,31,7.40
2012,02,27,13,32,9.80
2012,02,27,13,33,12.10
2012,02,27,13,34,9.00
2012,02,27,13,35,5.30
2012,02,27,13,36,8.90
2012,02,27,13,37,3.90
2012,02,27,13,38,8.80
2012,02,27,13,39,10.50
2012,02,27,13,40,11.30
2012,02,27,13,41,12.00
2012,02,27,13,42,7.20
2012,02,27,13,43,8.20
2012,02,27,13,44,7.30
2012,02,27,13,45,5.80
2012,02,27,13,46,11.80
2012,02,27,13,47,11.50
2012,02,27,13,48,4.40
2012,02,27,13,49,3.30
2012,02,27,13,50,5.90
2012,02,27,13,51,1.60
2012,02,27,13,52,8.30
2012,02,27,13,53,6.80
2012,02,27,13,54,8.70
2012,02,27,13,55,7.60
2012,02,27,13,56,6.00
2012,02,27,13,57,4.80
2012,02,27,13,58,6.00
2012,02,27,13,59,8.60
2012,02,27,14,00,11.20
2012,02,27,14,01,11.90
2012,02,27,14,02,9.70
2012,02,27,14,03,16.30
2012,02,27,14,04,13.40
2012,02,27,14,05,8.60
2012,02,27,14,06,11.00
2012,02,27,14,07,8.60
2012,02,27,14,08,13.20
2012,02,27,14,09,12.00
2012,02,27,14,10,10.50
2012,02,27,14,11,8.20
2012,02,27,14,12,8.10
2012,02,27,14,13,8.50
2012,02,27,14,14,9.60
2012,02,27,14,15,6.70
2012,02,27,14,16,9.30
2012,02,27,14,17,12.50
2012,02,27,14,18,7.00
2012,02,27,14,19,11.40
2012,02,27,14,20,6.70
2012,02,27,14,21,5.70
2012,02,27,14,22,7.40
2012,02,27,14,23,5.50
2012,02,27,14,24,8.80
2012,02,27,14,25,10.80
2012,02,27,14,26,10.00
2012,02,27,14,27,8.80
2012,02,27,14,28,7.20
2012,02,27,14,29,7.60
2012,02,27,14,30,9.30
2012,02,27,14,31,3.90
2012,02,27,14,32,3.50
2012,02,27,14,33,4.70
2012,02,27,14,34,8.10
2012,02,27,14,35,9.60
2012,02,27,14,36,10.90
2012,02,27,14,37,10.10
2012,02,27,14,38,8.40
2012,02,27,14,39,5.50
2012,02,27,14,40,6.10
2012,02,27,14,41,11.80
2012,02,27,14,42,7.30
2012,02,27,14,43,4.90
2012,02,27,14,44,12.40
2012,02,27,14,45,11.10
2012,02,27,14,46,7.90
2012,02,27,14,47,10.90
2012,02,27,14,48,4.80
2012,02,27,14,49,6.40
2012,02,27,14,50,4.50
2012,02,27,14,51,9.30
2012,02,27,14,52,5.40
2012,02,27,14,53,8.30
2012,02,27,14,54,10.00
2012,02,27,14,55,8.20
2012,02,27,14,56,7.30
2012,02,27,14,57,5.60
2012,02,27,14,58,7.60
2012,02,27,14,59,8.70
2012,02,27,15,00,7.90
2012,02,27,15,01,10.30
2012,02,27,15,02,13.00
2012,02,27,15,03,12.20
2012,02,27,15,04,12.60
2012,02,27,15,05,9.80
2012,02,27,15,06,10.30
2012,02,27,15,07,9.50
2012,02,27,15,08,8.40
2012,02,27,15,09,9.80
2012,02,27,15,10,8.50
2012,02,27,15,11,8.50
2012,02,27,15,12,10.50
2012,02,27,15,13,8.50
2012,02,27,15,14,11.90
2012,02,27,15,15,8.60
2012,02,27,15,16,9.20
2012,02,27,15,17,12.70
2012,02,27,15,18,9.10
2012,02,27,15,19,11.30
2012,02,27,15,20,7.80
2012,02,27,15,21,6.50
2012,02,27,15,22,6.30
2012,02,27,15,23,9.60
2012,02,27,15,24,6.00
2012,02,27,15,25,6.60
2012,02,27,15,26,6.20
2012,02,27,15,27,7.60
2012,02,27,15,28,8.50
2012,02,27,15,29,6.80
2012,02,27,15,30,8.50
2012,02,27,15,31,11.40
2012,02,27,15,32,9.70
2012,02,27,15,33,7.70
2012,02,27,15,34,7.00
2012,02,27,15,35,6.80
2012,02,27,15,36,5.10
2012,02,27,15,37,3.20
2012,02,27,15,38,8.80
2012,02,27,15,39,5.30
2012,02,27,15,40,3.90
2012,02,27,15,41,7.70
2012,02,27,15,42,6.40
2012,02,27,15,43,5.10
2012,02,27,15,44,5.30
2012,02,27,15,45,4.80
2012,02,27,15,46,8.50
2012,02,27,15,47,6.40
2012,02,27,15,48,6.20
2012,02,27,15,49,8.50
2012,02,27,15,50,6.90
2012,02,27,15,51,10.90
2012,02,27,15,52,8.10
2012,02,27,15,53,10.90
2012,02,27,15,54,11.30
2012,02,27,15,55,7.80
2012,02,27,15,56,7.10
2012,02,27,15,57,6.70
2012,02,27,15,58,9.30
2012,02,27,15,59,13.30
2012,02,27,16,00,10.00
2012,02,27,16,01,8.50
2012,02,27,16,02,4.10
2012,02,27,16,03,4.40
2012,02,27,16,04,5.00
2012,02,27,16,05,9.10
2012,02,27,16,06,8.90
2012,02,27,16,07,10.60
2012,02,27,16,08,9.10
2012,02,27,16,09,12.50
2012,02,27,16,10,8.40
2012,02,27,16,11,9.30
2012,02,27,16,12,8.70
2012,02,27,16,13,7.20
2012,02,27,16,14,6.00
2012,02,27,16,15,7.70
2012,02,27,16,16,7.30
2012,02,27,16,17,8.50
2012,02,27,16,18,9.10
2012,02,27,16,19,6.10
2012,02,27,16,20,7.80
2012,02,27,16,21,6.80
2012,02,27,16,22,6.20
2012,02,27,16,23,5.70
2012,02,27,16,24,7.90
2012,02,27,16,25,7.80
2012,02,27,16,26,9.30
2012,02,27,16,27,8.90
2012,02,27,16,28,8.40
2012,02,27,16,29,6.80
2012,02,27,16,30,8.90
2012,02,27,16,31,8.50
2012,02,27,16,32,4.60
2012,02,27,16,33,8.40
2012,02,27,16,34,9.70
2012,02,27,16,35,4.00
2012,02,27,16,36,5.10
2012,02,27,16,37,5.60
2012,02,27,16,38,3.40
2012,02,27,16,39,7.20
2012,02,27,16,40,6.40
2012,02,27,16,41,9.50
2012,02,27,16,42,10.30
2012,02,27,16,43,13.50
2012,02,27,16,44,8.00
2012,02,27,16,45,6.40
2012,02,27,16,46,5.70
2012,02,27,16,47,7.40
2012,02,27,16,48,8.70
2012,02,27,16,49,6.90
2012,02,27,16,50,8.60
2012,02,27,16,51,6.90
2012,02,27,16,52,5.70
2012,02,27,16,53,3.50
2012,02,27,16,54,7.70
2012,02,27,16,55,8.40
2012,02,27,16,56,6.30
2012,02,27,16,57,3.30
2012,02,27,16,58,7.70
2012,02,27,16,59,6.80
2012,02,27,17,00,6.00
2012,02,27,17,01,6.40
2012,02,27,17,02,8.00
2012,02,27,17,03,7.50
2012,02,27,17,04,7.50
2012,02,27,17,05,7.50
2012,02,27,17,06,9.70
2012,02,27,17,07,5.80
2012,02,27,17,08,5.40
2012,02,27,17,09,5.60
2012,02,27,17,10,5.90
2012,02,27,17,11,9.20
2012,02,27,17,12,7.40
2012,02,27,17,13,6.00
2012,02,27,17,14,5.10
2012,02,27,17,15,5.70
2012,02,27,17,16,7.40
2012,02,27,17,17,8.20
2012,02,27,17,18,6.80
2012,02,27,17,19,4.40
2012,02,27,17,20,7.90
2012,02,27,17,21,6.70
2012,02,27,17,22,7.20
2012,02,27,17,23,6.20
2012,02,27,17,24,9.70
2012,02,27,17,25,7.70
2012,02,27,17,26,6.10
2012,02,27,17,27,6.90
2012,02,27,17,28,6.20
2012,02,27,17,29,7.20
2012,02,27,17,30,6.70
2012,02,27,17,31,7.70
2012,02,27,17,32,4.50
2012,02,27,17,33,4.70
2012,02,27,17,34,7.30
2012,02,27,17,35,5.40
2012,02,27,17,36,7.60
2012,02,27,17,37,6.40
2012,02,27,17,38,6.80
2012,02,27,17,39,7.80
2012,02,27,17,40,7.60
2012,02,27,17,41,6.70
2012,02,27,17,42,6.10
2012,02,27,17,43,5.20
2012,02,27,17,44,7.50
2012,02,27,17,45,7.30
2012,02,27,17,46,4.90
2012,02,27,17,47,5.20
2012,02,27,17,48,6.60
2012,02,27,17,49,5.60
2012,02,27,17,50,7.60
2012,02,27,17,51,5.30
2012,02,27,17,52,8.00
2012,02,27,17,53,3.50
2012,02,27,17,54,4.50
2012,02,27,17,55,7.20
2012,02,27,17,56,6.20
2012,02,27,17,57,5.40
2012,02,27,17,58,6.60
2012,02,27,17,59,6.00
2012,02,27,18,00,6.80
2012,02,27,18,01,5.80
2012,02,27,18,02,5.10
2012,02,27,18,03,3.20